WESTFORD NEEDLES, 2949

Orbit data source: Space-Track

WESTFORD NEEDLES, 2949 is space debris in LEO originally from a launch on Thu, 09 May 1963 UTC launched from the Air Force Western Test Range (AFWTR). Debris objects in space refer to the collection of defunct objects orbiting the Earth. Examples of debris include non-operational satellites, rocket bodies, and fragments generated from explosions, collisions, or faulty payload assembly.

Loading next visibility...
Identifier
2949, 1963-014AS
Orbit
LEO
Country
Flag of USUS
Related business
Manufacturer
Unknown
Mission
Spacecraft
Bus & Motor
Unknown
Mass
Unknown
Launch date (UTC)
1963-05-09 (63 years ago)
Launch vehicle
Unknown
Launch site
Air Force Western Test Range (AFWTR)
Object type
Payload
Rocket body
Debris
Shape & HBR
Unknown shape, 0.2 m
Radar Cross Section
Medium (>0.1 m² and <1 m²)

Expand to show TLE details & history
Last TLE update: 10 hours ago

TLE from 10 hours ago
0 WESTFORD NEEDLES
1  2949U 63014AS  26125.40078786  .00009300  00000-0  20374+0 0  9991
2  2949  85.5032   6.9209 2285462 134.8318  26.2288  8.85640087392011
Epoch: 2026-05-05T09:37Z
TLE epoch observation values (Epoch: 2026-05-05T09:37:08.071Z)
Latitude
3.54726°
Longitude
179.08316°
Altitude
1,609.559 km
Speed
7.71 km/s
True Right ascension
12h 26m 34s
True Declination
3° 31' 42"
Sunlit
Object was in full shadow at epoch
Visualization orbit readout
Latitude
Unknown
Longitude
Unknown
Altitude
Unknown
Speed
Unknown
Apparent Right ascension
Unknown
Apparent Declination
Unknown
Sunlit
N/A
Visualization observer readout
Local Sidereal Time
03:17:03
Azimuth
Unknown
Elevation
Unknown
Doppler factor
Unknown
Orbital elements
Apogee altitude
5,742.282 km
Perigee altitude
1,232.764 km
Semi-major axis
9,865.66 km
Eccentricity
0.22855
Inclination
85.5032°
RAAN
6.9209°
Arg. of periapsis
134.8318°
True anomaly
41.52883°
Mean anomaly
26.2288°
Eccentric anomaly
33.44597°
Mean motion
2.2149 °/min
Orbital period
162.54 mins
BSTAR
0.20374
Loading maneuver chart data...
Computing Atmospheric mass density...

Documentation

Showing up to 5 results
|